Location: Unspecified
(48.2082°N, 0.0000°E)
Time: 02:34:54
(UTC+00:00)

A-11 Canister half - Pass Details

Date: 26 June 2019
Orbit: 1514 x 1685 km, 47.2° (Epoch: 17 July)

Event Time Altitude Azimuth Distance (km) Brightness Sun altitude
Rises 09:55:02 0° 233° (SW) 4,916 11.5 54.6°
Reaches altitude 10° 09:58:16 10° 230° (SW) 3,917 11.2 55.0°
Maximum altitude 10:08:04 62° 153° (SSE) 1,808 11.5 56.3°
Drops below altitude 10° 10:17:33 10° 76° (ENE) 3,803 11.5 57.6°
Sets 10:20:38 0° 74° (ENE) 4,766 11.8 58.0°
